Date_and_time,latitude,longitude,wind_speed,RelWindDirFrom,WindDirFrom,air_pressure,air_temperature,relative_humidity,Temp,platform_speed_wrt_ground,air_pressure_at_mean_sea_level,platform_orientation
2018-06-08 23:50,50.9117366666667,-96.9825366666667,4.8,6.6,69,987.51,22.0,70,20.39,0.0,1013.18,11.7
2018-06-09 00:00,50.911705,-96.98253,6.5,8.5,75,987.52,21.9,68,20.37,0.0,1013.22,153.7
2018-06-09 00:10,50.91172,-96.9825233333333,6.1,8.1,76,987.45,21.8,68,20.35,0.0,1013.15,153.7
2018-06-09 00:20,50.9117416666667,-96.9825233333333,6.4,8.3,75,987.32,21.6,71,20.33,0.0,1013.03,153.7
2018-06-09 00:30,50.91173,-96.9825216666667,7.5,8.6,80,987.35,21.6,68,20.31,0.0,1013.08,153.7
2018-06-09 00:40,50.9117233333333,-96.9825283333333,8.5,10.7,98,987.40,21.9,62,20.32,0.0,1013.14,153.7
2018-06-09 00:50,50.9117333333333,-96.9825266666667,8.2,9.8,98,987.44,22.1,62,20.28,0.0,1013.16,153.7
2018-06-09 01:00,50.911735,-96.982525,7.3,9.2,103,987.47,21.8,64,20.24,0.0,1013.19,132.1
2018-06-09 01:10,50.911745,-96.9825116666667,9.3,12.4,118,987.37,21.1,63,20.17,0.0,1013.13,132.1
2018-06-09 01:20,50.9117466666667,-96.9825183333333,10.5,13.4,115,987.33,21.1,62,20.11,0.0,1013.08,132.1
2018-06-09 01:30,50.9117366666667,-96.9825416666667,11.2,14.9,114,987.33,21.1,62,20.07,0.0,1013.10,132.1
2018-06-09 01:40,50.9117433333333,-96.9824966666667,11.8,14.3,116,987.24,21.0,62,20.03,0.0,1013.03,132.1
2018-06-09 01:50,50.9117433333333,-96.9825033333333,11.0,13.9,116,987.22,20.7,64,19.99,0.0,1013.03,132.1
2018-06-09 02:00,50.9117416666667,-96.9825116666667,13.0,14.2,121,987.18,20.2,65,19.95,0.0,1013.02,22.7
2018-06-09 02:10,50.9117383333333,-96.9825116666667,11.2,13.7,119,987.14,20.2,66,19.91,0.0,1012.98,22.7
2018-06-09 02:20,50.9117383333333,-96.982515,10.4,12.6,116,987.11,20.1,67,19.87,0.0,1012.96,22.7
2018-06-09 02:30,50.91174,-96.9825183333333,11.6,13.0,119,987.01,20.0,67,19.83,0.0,1012.84,22.7
2018-06-09 02:40,50.91174,-96.9825183333333,11.1,12.9,117,986.94,20.0,68,19.79,0.0,1012.76,22.7
2018-06-09 02:50,50.91173,-96.982535,10.5,14.4,111,986.86,20.3,67,19.76,0.0,1012.68,22.7
2018-06-09 03:00,50.911745,-96.9825183333333,9.9,12.8,114,986.78,20.3,66,19.73,0.0,1012.64,360.0
2018-06-09 03:10,50.9117433333333,-96.9825233333333,10.6,12.7,110,986.78,20.6,65,19.71,0.0,1012.62,360.0
2018-06-09 03:20,50.9117383333333,-96.9825216666667,10.2,11.7,107,986.80,20.4,67,19.70,0.0,1012.65,360.0
2018-06-09 03:30,50.91173,-96.9825183333333,9.1,10.4,100,986.79,20.1,69,19.68,0.0,1012.65,360.0
2018-06-09 03:40,50.91173,-96.9825283333333,6.3,8.5,82,986.96,19.8,72,19.66,0.0,1012.85,360.0
2018-06-09 03:50,50.91173,-96.982525,5.8,7.0,76,987.04,19.5,74,19.64,0.0,1012.98,360.0
2018-06-09 04:00,50.9117333333333,-96.98253,6.1,7.3,83,986.98,19.4,74,19.62,0.0,1012.92,360.0
2018-06-09 04:10,50.9117333333333,-96.9825316666667,4.9,5.9,84,987.06,19.3,75,19.60,0.0,1013.00,360.0
2018-06-09 04:20,50.911735,-96.98253,4.5,5.7,90,987.03,19.3,76,19.57,0.0,1012.98,360.0
2018-06-09 04:30,50.9117483333333,-96.9825366666667,4.2,5.6,103,986.92,19.3,76,19.55,0.0,1012.87,360.0
2018-06-09 04:40,50.9117416666667,-96.9825033333333,3.2,4.8,127,986.90,18.7,77,19.52,0.0,1012.86,360.0
2018-06-09 04:50,50.9117216666667,-96.98251,2.5,4.2,130,986.94,18.4,79,19.50,0.0,1012.91,360.0
2018-06-09 05:00,50.911735,-96.982535,3.1,4.3,137,986.91,18.3,79,19.47,0.0,1012.88,248.2
2018-06-09 05:10,50.9117366666667,-96.9825283333333,4.0,5.2,140,986.84,18.2,80,19.43,0.0,1012.82,248.2
2018-06-09 05:20,50.9117366666667,-96.9825266666667,4.9,6.1,146,986.81,18.1,81,19.39,0.0,1012.80,248.2
2018-06-09 05:30,50.9117366666667,-96.9825233333333,7.0,8.6,126,986.57,18.0,80,19.33,0.0,1012.58,248.2
2018-06-09 05:40,50.911735,-96.982525,6.8,8.1,132,986.41,18.0,79,19.28,0.0,1012.42,248.2
2018-06-09 05:50,50.911745,-96.9825416666667,6.1,7.7,141,986.38,18.0,82,19.25,0.0,1012.39,248.2
2018-06-09 06:00,50.9117416666667,-96.9825383333333,3.2,6.0,170,986.58,18.0,85,19.22,0.0,1012.60,270.0
2018-06-09 06:10,50.9117383333333,-96.982535,2.8,4.8,170,986.58,17.8,87,19.18,0.0,1012.61,270.0
2018-06-09 06:20,50.9117333333333,-96.982535,3.1,4.8,173,986.63,17.9,87,19.15,0.0,1012.66,270.0
2018-06-09 06:30,50.9117316666667,-96.9825366666667,4.7,6.1,154,986.55,18.1,86,19.12,0.0,1012.60,270.0
2018-06-09 06:40,50.9117316666667,-96.982535,5.3,6.4,151,986.52,18.2,87,19.12,0.0,1012.57,270.0
2018-06-09 06:50,50.9117416666667,-96.9824916666667,3.5,4.9,149,986.70,18.0,90,19.12,0.0,1012.78,270.0
2018-06-09 07:00,50.911745,-96.9825233333333,3.4,4.2,135,986.68,17.9,90,19.11,0.0,1012.76,12.9
2018-06-09 07:10,50.91174,-96.9825266666667,3.8,4.6,143,986.69,17.9,91,19.10,0.0,1012.79,12.9
2018-06-09 07:20,50.91172,-96.9825433333333,3.9,5.1,160,986.88,17.9,91,19.08,0.0,1012.98,12.9
2018-06-09 07:30,50.9117266666667,-96.98253,3.1,4.4,170,987.02,17.9,93,19.07,0.0,1013.13,12.9
2018-06-09 07:40,50.9117183333333,-96.9825266666667,3.7,4.8,164,987.03,17.9,93,19.02,0.0,1013.13,12.9
2018-06-09 07:50,50.9117266666667,-96.98252,3.6,5.0,168,987.02,18.0,91,18.99,0.0,1013.12,12.9
2018-06-09 08:00,50.91173,-96.98252,3.1,4.8,150,986.96,17.9,91,18.94,0.0,1013.07,125.8
2018-06-09 08:10,50.9117183333333,-96.9825316666667,4.6,6.0,132,986.85,17.9,91,18.92,0.0,1012.95,125.8
2018-06-09 08:20,50.911715,-96.9825533333333,5.4,6.4,105,986.78,18.5,90,18.91,0.0,1012.84,125.8
2018-06-09 08:30,50.911745,-96.98253,7.4,9.1,94,986.71,18.4,91,18.91,0.0,1012.78,125.8
2018-06-09 08:40,50.9117466666667,-96.9825283333333,6.9,8.5,90,986.65,18.2,94,18.89,0.0,1012.73,125.8
2018-06-09 08:50,50.9117383333333,-96.9825266666667,5.8,8.1,106,986.56,18.0,96,18.87,0.0,1012.65,125.8
2018-06-09 09:00,50.9117433333333,-96.9825366666667,5.4,7.6,119,986.42,17.7,96,18.86,0.0,1012.52,0.0
2018-06-09 09:10,50.9117483333333,-96.982535,6.5,8.8,112,986.22,18.0,95,18.84,0.0,1012.31,0.0
2018-06-09 09:20,50.9117483333333,-96.9825333333333,7.4,9.0,111,986.18,18.1,92,18.82,0.0,1012.26,0.0
2018-06-09 09:30,50.911745,-96.9825366666667,8.7,10.7,108,986.19,18.0,96,18.80,0.0,1012.27,0.0
2018-06-09 09:40,50.9117183333333,-96.98253,9.2,10.7,108,986.14,17.8,94,18.77,0.0,1012.22,0.0
2018-06-09 09:50,50.9117283333333,-96.9825333333333,9.0,12.0,117,986.09,17.4,93,18.74,0.0,1012.19,0.0
2018-06-09 10:00,50.9117316666667,-96.9825333333333,10.4,13.6,122,986.11,17.3,93,18.70,0.0,1012.22,216.0
2018-06-09 10:10,50.9117316666667,-96.9825283333333,11.7,13.5,129,986.22,17.3,93,18.65,0.0,1012.31,216.0
2018-06-09 10:20,50.9117316666667,-96.98253,11.3,12.8,132,986.29,17.3,93,18.62,0.0,1012.38,216.0
2018-06-09 10:30,50.91173,-96.9825316666667,10.8,12.1,135,986.32,17.3,94,18.60,0.0,1012.42,216.0
2018-06-09 10:40,50.9117133333333,-96.9825466666667,10.2,11.9,134,986.31,17.3,95,18.58,0.0,1012.42,216.0
2018-06-09 10:50,50.9117216666667,-96.9825233333333,9.0,10.4,131,986.33,17.2,95,18.57,0.0,1012.46,216.0
2018-06-09 11:00,50.91172,-96.9825266666667,9.4,10.7,132,986.38,17.2,93,18.59,0.0,1012.49,192.9
2018-06-09 11:10,50.9117183333333,-96.9825283333333,9.7,11.0,133,986.40,17.3,94,18.60,0.0,1012.50,192.9
2018-06-09 11:20,50.9117233333333,-96.9825283333333,8.9,10.0,128,986.40,17.2,95,18.61,0.0,1012.51,192.9
2018-06-09 11:30,50.9117216666667,-96.9825283333333,8.0,9.9,121,986.40,17.3,95,18.61,0.0,1012.52,192.9
2018-06-09 11:40,50.9117266666667,-96.9825283333333,6.7,8.3,104,986.57,17.8,98,18.63,0.0,1012.70,192.9
2018-06-09 11:50,50.911745,-96.98254,6.5,7.8,94,986.64,17.7,98,18.65,0.0,1012.78,192.9
2018-06-09 12:00,50.9117416666667,-96.9825333333333,6.4,7.5,98,986.66,17.7,98,18.68,0.0,1012.79,0.0
2018-06-09 12:10,50.9117383333333,-96.9825333333333,6.7,8.4,90,986.65,17.7,98,18.68,0.0,1012.79,0.0
2018-06-09 12:20,50.9117266666667,-96.9825533333333,9.3,11.3,100,986.58,17.6,98,18.69,0.0,1012.71,0.0
2018-06-09 12:30,50.9117283333333,-96.9825383333333,10.2,12.5,102,986.59,17.6,97,18.67,0.0,1012.72,0.0
2018-06-09 12:40,50.91173,-96.98253,9.8,11.7,103,986.74,17.6,97,18.64,0.0,1012.88,0.0
2018-06-09 12:50,50.9117283333333,-96.9825316666667,9.2,10.3,97,986.87,17.4,99,18.61,0.0,1013.03,0.0
2018-06-09 13:00,50.9117283333333,-96.9825316666667,9.0,11.0,98,986.86,17.3,99,18.57,0.0,1013.02,90.0
2018-06-09 13:10,50.91173,-96.98254,9.6,11.2,98,986.79,17.3,99,18.54,0.0,1012.95,90.0
2018-06-09 13:20,50.9117416666667,-96.9825266666667,8.8,10.4,94,986.73,17.4,99,18.51,0.0,1012.88,90.0
2018-06-09 13:30,50.9117416666667,-96.9825333333333,8.5,10.1,96,986.84,17.4,99,18.50,0.0,1012.97,90.0
2018-06-09 13:40,50.9117383333333,-96.9825266666667,8.3,9.6,100,986.99,17.5,98,18.49,0.0,1013.12,90.0
2018-06-09 13:50,50.9117316666667,-96.9825233333333,8.6,9.9,99,986.91,17.7,95,18.48,0.0,1013.03,90.0
2018-06-09 14:00,50.91173,-96.9825233333333,8.5,9.7,97,986.89,17.6,95,18.49,0.0,1013.02,12.9
2018-06-09 14:10,50.9117433333333,-96.98252,7.9,9.1,97,986.97,17.4,98,18.47,0.0,1013.11,12.9
2018-06-09 14:20,50.9117366666667,-96.9825266666667,7.4,8.6,98,986.89,17.4,97,18.46,0.0,1013.03,12.9
2018-06-09 14:30,50.9117366666667,-96.9825266666667,6.5,8.9,109,986.98,17.5,96,18.46,0.0,1013.12,12.9
2018-06-09 14:40,50.9117366666667,-96.9825266666667,6.7,9.5,116,986.88,17.3,94,18.46,0.0,1013.03,12.9
2018-06-09 14:50,50.9117366666667,-96.9825266666667,7.8,9.4,123,986.76,17.1,94,18.45,0.0,1012.92,12.9
2018-06-09 15:00,50.911735,-96.9825283333333,7.1,8.8,119,986.72,17.3,93,18.44,0.0,1012.87,132.1
2018-06-09 15:10,50.9117283333333,-96.98253,7.2,9.8,119,986.79,17.3,92,18.44,0.0,1012.94,132.1
2018-06-09 15:20,50.91173,-96.9825283333333,6.3,7.6,122,986.70,17.3,91,18.45,0.0,1012.84,132.1
2018-06-09 15:30,50.911725,-96.9825233333333,6.7,7.7,125,986.66,17.3,88,18.46,0.0,1012.80,132.1
2018-06-09 15:40,50.911725,-96.982525,6.2,7.1,128,986.63,17.4,88,18.46,0.0,1012.77,132.1
2018-06-09 15:50,50.9117266666667,-96.982525,5.5,6.6,122,986.61,17.4,88,18.47,0.0,1012.74,132.1
2018-06-09 16:00,50.91172,-96.9824716666667,4.8,6.3,111,986.56,18.0,90,18.48,0.0,1012.68,110.5
2018-06-09 16:10,50.9117316666667,-96.982515,4.6,6.1,115,986.61,17.7,90,18.51,0.0,1012.73,110.5
2018-06-09 16:20,50.911735,-96.982515,4.9,6.6,121,986.67,17.3,90,18.51,0.0,1012.81,110.5
2018-06-09 16:30,50.9117366666667,-96.9825116666667,4.0,5.7,116,986.64,17.6,88,18.51,0.0,1012.78,110.5
2018-06-09 16:40,50.91174,-96.9825116666667,3.5,4.3,88,986.50,18.3,87,18.52,0.0,1012.61,110.5
2018-06-09 16:50,50.911725,-96.9825266666667,3.1,4.5,112,986.47,18.1,88,18.54,0.0,1012.58,110.5
2018-06-09 17:00,50.91173,-96.98252,3.5,5.4,118,986.47,17.9,86,18.56,0.0,1012.59,0.0
2018-06-09 17:10,50.9117283333333,-96.9825183333333,2.7,3.9,85,986.45,18.8,84,18.58,0.0,1012.53,0.0
2018-06-09 17:20,50.9117233333333,-96.9825,2.5,3.5,78,986.41,19.3,81,18.61,0.0,1012.47,0.0
2018-06-09 17:30,50.9117533333333,-96.982535,3.0,4.1,77,986.41,19.6,80,18.64,0.0,1012.44,0.0
2018-06-09 17:40,50.91173,-96.9825266666667,4.7,6.1,103,986.39,19.3,81,18.67,0.0,1012.44,0.0
2018-06-09 17:50,50.9117283333333,-96.9825266666667,4.3,5.8,110,986.35,18.8,82,18.70,0.0,1012.40,0.0
2018-06-09 18:00,50.91173,-96.982525,4.5,5.7,108,986.34,19.0,82,18.72,0.0,1012.38,360.0
2018-06-09 18:10,50.9117533333333,-96.9825366666667,3.9,4.8,104,986.31,19.1,83,18.74,0.0,1012.37,360.0
2018-06-09 18:20,50.9117383333333,-96.9825216666667,4.7,5.4,101,986.32,19.1,84,18.78,0.0,1012.37,360.0
2018-06-09 18:30,50.911735,-96.9825283333333,4.7,6.1,111,986.30,19.0,83,18.80,0.0,1012.32,360.0
2018-06-09 18:40,50.911735,-96.9825316666667,5.2,6.6,107,986.31,19.1,86,18.83,0.0,1012.34,360.0
2018-06-09 18:50,50.9117316666667,-96.9825283333333,5.7,7.6,120,986.24,18.7,84,18.85,0.0,1012.28,360.0
2018-06-09 19:00,50.9117316666667,-96.9825283333333,7.7,9.3,140,986.24,18.6,84,18.88,0.0,1012.26,289.9
2018-06-09 19:10,50.9117316666667,-96.98253,6.8,7.9,141,986.22,18.6,85,18.94,0.0,1012.21,289.9
2018-06-09 19:20,50.9117316666667,-96.98253,6.2,7.4,136,986.18,18.6,86,18.99,0.0,1012.16,289.9
2018-06-09 19:30,50.91174,-96.9825533333333,7.1,9.0,145,986.21,18.6,88,19.03,0.0,1012.20,289.9
2018-06-09 19:40,50.911725,-96.982525,8.8,11.0,147,986.16,18.7,86,19.14,0.0,1012.16,289.9
2018-06-09 19:50,50.9117333333333,-96.9825233333333,10.4,12.7,148,986.13,18.7,85,19.26,0.0,1012.13,289.9
2018-06-09 20:00,50.9117116666667,-96.9825316666667,10.3,12.5,147,986.13,18.7,86,19.39,0.0,1012.12,360.0
2018-06-09 20:10,50.9117166666667,-96.98253,9.8,11.8,145,986.07,18.7,87,19.49,0.0,1012.07,360.0
2018-06-09 20:20,50.911735,-96.982555,11.0,12.8,145,986.08,18.6,87,19.56,0.0,1012.08,360.0
2018-06-09 20:30,50.9117266666667,-96.9825133333333,11.0,12.9,146,986.04,18.7,87,19.63,0.0,1012.03,360.0
2018-06-09 20:40,50.911735,-96.9825483333333,12.3,14.0,142,985.94,18.7,87,19.68,0.0,1011.95,360.0
2018-06-09 20:50,50.911735,-96.982545,10.7,13.0,151,986.03,18.5,88,19.70,0.0,1012.05,360.0
2018-06-09 21:00,50.9117333333333,-96.98254,11.1,13.4,158,985.98,18.7,87,19.72,0.0,1012.00,270.0
2018-06-09 21:10,50.9117333333333,-96.9825333333333,10.3,13.4,163,985.86,18.8,86,19.72,0.0,1011.87,270.0
2018-06-09 21:20,50.9117,-96.9825316666667,10.4,13.1,164,985.85,18.9,86,19.71,0.0,1011.85,270.0
2018-06-09 21:30,50.911765,-96.98261,10.7,14.0,166,985.90,18.9,86,19.70,0.0,1011.89,270.0
2018-06-09 21:40,50.9117283333333,-96.9825233333333,10.5,13.5,163,985.92,18.8,86,19.70,0.0,1011.92,270.0
2018-06-09 21:50,50.9117283333333,-96.98253,9.2,12.3,164,985.93,18.8,87,19.68,0.0,1011.94,270.0
2018-06-09 22:00,50.9117283333333,-96.9825283333333,9.9,12.6,162,985.95,18.7,86,19.65,0.0,1011.95,90.0
2018-06-09 22:10,50.9117283333333,-96.9825266666667,11.1,13.7,161,985.94,18.7,84,19.63,0.0,1011.95,90.0
2018-06-09 22:20,50.91173,-96.9825316666667,9.0,13.2,163,985.94,18.8,85,19.62,0.0,1011.94,90.0
2018-06-09 22:30,50.91173,-96.98253,7.8,10.0,164,985.92,18.8,85,19.61,0.0,1011.93,90.0
2018-06-09 22:40,50.911735,-96.9825166666667,7.6,9.9,164,985.88,18.7,86,19.59,0.0,1011.89,90.0
2018-06-09 22:50,50.911725,-96.9825233333333,7.3,10.2,165,985.85,18.7,86,19.58,0.0,1011.85,90.0
2018-06-09 23:00,50.911695,-96.98252,7.6,9.9,163,985.79,18.7,86,19.57,0.0,1011.79,157.3
2018-06-09 23:10,50.91172,-96.9825333333333,7.5,9.3,163,985.79,18.6,87,19.55,0.0,1011.79,157.3
2018-06-09 23:20,50.9117383333333,-96.98254,8.2,9.6,159,985.76,18.5,86,19.53,0.0,1011.77,157.3
2018-06-09 23:30,50.91173,-96.9825383333333,8.2,9.8,153,985.64,18.5,85,19.52,0.0,1011.64,157.3
